Wind_Speed
3 2 2 1 1 3 3 5 6 8 9 11 12 15 16 18 20 22 24 24 23 17 10 9 9 8 1 0 1 7 8 6 4 3 2 3 3 2 4 3 2 4 4 3 4 3 4
5 4 2 2 1 2 4 5 6 7 9 11 13 15 17 19 21 23 24 25 23 16 10 9 8 5 2 1 3 8 7 6 5 5 4 5 1 2 4 3 3 1 3 2 3 3 2
7 7 6 5 3 3 3 5 6 7 9 11 13 15 18 20 22 24 25 24 24 13 9 9 5 1 3 2 3 6 5 6 6 5 1 2 2 1 2 3 3 3 2 0 3 2 2
8 8 7 8 6 5 5 4 6 8 9 11 13 15 18 20 23 25 25 24 23 7 5 5 2 1 1 1 2 6 4 4 6 5 2 2 3 1 2 2 2 1 1 1 3 1 2
9 8 9 9 9 7 6 6 6 7 9 10 12 14 17 20 23 26 25 25 13 5 2 3 2 1 1 0 1 3 4 3 8 5 5 3 2 2 3 4 4 2 2 3 2 3 1
10 9 9 9 8 9 9 7 7 7 8 10 11 13 15 18 21 24 24 17 6 4 4 2 3 2 1 1 2 3 2 2 3 7 5 3 3 2 3 4 4 5 2 2 3 1 3
11 9 8 8 9 9 9 9 8 7 8 9 10 12 14 16 19 20 21 6 8 4 7 4 5 3 2 3 4 1 0 1 2 4 2 3 3 5 7 2 3 4 1 3 4 1 4
15 12 11 11 10 9 10 9 9 8 8 10 10 12 13 14 16 16 16 7 2 2 6 3 1 3 1 1 1 2 1 2 2 3 2 4 4 2 7 5 3 2 1 5 2 1 3
14 12 11 12 14 13 12 11 11 9 9 9 11 12 13 12 10 10 7 5 1 2 1 4 1 1 0 1 2 4 1 2 3 3 4 3 4 3 3 2 2 2 4 4 4 5 3
10 11 12 8 9 13 14 13 11 10 10 10 9 12 14 14 2 8 2 5 4 1 4 6 1 0 0 1 2 1 1 1 2 4 5 2 3 3 1 3 5 2 1 2 2 5 3
4 3 6 10 10 10 7 10 11 11 13 12 11 7 10 8 10 4 3 7 6 1 4 3 2 1 1 1 2 1 1 2 1 4 6 5 8 5 3 3 4 4 3 3 2 1 5
2 2 5 6 7 8 9 7 11 12 14 13 13 8 6 2 4 6 9 7 1 5 6 2 2 1 1 3 2 2 1 1 0 0 1 2 2 5 7 3 5 5 3 3 4 3 2
5 3 3 1 2 3 4 2 6 11 11 10 9 9 8 5 2 1 6 2 4 4 3 3 3 4 4 5 3 5 4 4 5 4 4 1 3 1 3 4 3 3 5 3 4 2 5
6 7 5 4 2 1 4 4 2 1 10 11 10 8 10 14 12 7 4 4 6 7 6 2 4 5 4 5 5 7 3 3 7 2 3 5 5 9 5 5 7 6 7 5 6 3 4
8 8 6 5 3 1 1 2 2 4 4 3 6 6 9 14 16 7 2 7 6 7 5 4 1 4 4 4 5 5 7 5 8 14 9 7 6 3 3 1 4 5 4 3 2 1 2
10 8 7 5 4 3 1 1 1 3 5 6 1 4 8 12 10 10 6 14 8 7 1 3 6 7 6 5 7 7 8 6 5 12 5 6 3 3 2 2 1 3 2 3 2 3 6
15 14 10 8 7 5 3 3 3 3 4 6 1 2 3 12 18 5 12 8 16 12 5 6 7 6 5 3 7 6 5 5 8 3 8 4 4 2 5 8 11 2 3 3 3 4 5
14 16 16 14 9 6 6 3 3 3 4 2 1 2 7 6 7 4 15 4 11 8 17 19 13 11 6 8 11 9 10 9 4 6 8 6 3 5 13 4 8 6 12 11 5 7 4
14 14 14 16 14 10 9 8 5 3 1 2 1 2 5 3 3 9 3 9 19 12 13 8 15 14 19 18 14 18 22 14 8 10 9 6 2 3 5 4 3 8 8 8 0 3 16
13 13 13 14 15 15 10 8 6 5 1 3 1 1 2 2 3 2 4 4 2 6 3 5 4 4 9 18 21 18 24 9 1 15 6 7 9 11 17 7 6 6 10 19 19 9 15
16 14 13 13 13 15 14 11 8 5 5 5 1 1 1 1 1 2 0 2 4 6 6 7 3 6 3 6 13 24 20 19 4 6 3 11 12 19 28 28 9 7 10 22 26 29 17
19 16 14 13 13 13 14 15 13 10 10 5 2 1 2 1 2 0 2 1 3 2 2 3 2 5 3 3 3 5 5 3 3 5 4 4 6 10 26 21 12 15 14 8 23 26 26
19 17 15 14 13 13 13 16 18 16 15 3 5 4 1 3 2 3 3 4 2 1 4 2 2 4 4 1 8 9 7 5 3 2 3 3 3 1 8 3 5 8 21 22 16 15 14
20 19 16 13 14 14 15 16 20 20 21 9 6 3 2 2 5 4 4 7 7 6 2 4 2 2 1 3 8 6 8 11 11 10 8 3 2 2 2 3 6 3 5 9 17 20 19
18 17 17 16 14 15 15 16 19 23 24 17 11 6 2 3 5 5 9 6 6 8 2 4 5 5 2 2 3 4 3 4 9 15 14 15 5 3 3 5 7 7 5 4 6 6 8
17 19 18 17 15 15 15 16 17 20 24 24 18 17 3 2 7 5 4 5 4 3 1 4 3 6 4 2 2 3 2 2 4 5 4 12 12 7 3 4 6 2 3 3 3 9 7
16 17 19 18 15 15 15 15 16 17 20 26 10 26 6 3 4 4 4 6 5 3 2 1 2 3 6 3 5 4 5 4 5 3 3 3 4 14 13 10 4 6 8 2 3 6 6
17 18 20 20 17 14 15 16 16 17 19 22 14 28 17 4 3 5 5 4 3 4 4 2 1 2 2 3 2 3 3 2 2 4 5 4 4 5 6 8 7 7 3 6 3 2 1
17 18 19 18 17 16 15 15 16 18 19 21 7 22 17 3 1 5 10 10 6 6 4 3 2 3 4 1 2 2 2 1 5 4 1 4 2 3 4 3 4 8 5 6 5 4 4
Wind_Direction
229 184 136 122 66 33 19 13 11 9 7 10 7 6 4 0 358 357 354 352 351 349 355 353 341 348 5 91 18 333 349 10 51 30 329 354 75 36 113 127 53 99 148 160 171 206 226
265 261 238 246 278 353 352 355 352 356 360 360 1 1 359 356 355 354 351 347 344 340 337 343 337 349 46 351 350 346 2 10 40 36 24 30 120 136 102 81 97 143 146 148 172 246 234
252 263 273 263 278 300 320 331 338 343 349 354 356 356 355 354 352 350 347 342 336 331 325 332 338 39 74 205 339 359 4 3 14 8 357 34 20 18 145 122 175 136 127 121 229 220 289
255 269 266 276 273 288 303 313 324 334 343 349 350 352 354 352 350 347 343 338 329 325 328 347 334 5 168 353 343 4 4 1 358 352 356 351 354 36 65 92 66 175 98 76 209 305 236
247 255 271 274 281 276 277 293 308 322 331 337 343 348 350 352 351 347 343 334 332 340 296 345 346 348 297 187 60 1 13 359 337 332 334 320 336 131 64 100 27 344 220 222 278 186 248
244 246 253 266 271 283 286 284 293 306 319 327 334 342 348 352 353 351 347 335 354 36 334 314 283 22 198 185 289 340 37 36 71 345 337 345 35 71 25 90 202 198 209 270 241 239 245
251 248 257 263 274 278 284 291 294 302 309 316 325 334 343 349 357 3 3 10 13 7 34 268 284 277 51 307 278 203 334 127 130 89 313 328 62 202 211 117 67 94 84 267 284 348 289
246 246 254 259 266 275 285 286 291 297 303 312 319 328 335 349 358 16 38 66 126 236 309 328 283 307 264 335 313 207 213 172 162 167 138 12 230 155 114 97 107 113 212 272 290 38 357
237 244 246 259 253 254 263 272 283 289 302 309 318 323 325 339 351 22 43 72 43 195 260 298 185 308 190 179 268 190 182 179 195 185 168 188 313 128 100 122 130 233 208 243 231 331 311
230 237 244 245 264 269 261 266 265 275 287 293 309 322 322 332 53 355 80 0 4 184 48 281 293 185 234 254 285 63 352 279 230 183 157 190 171 160 155 219 146 265 118 68 27 46 256
297 264 246 252 250 265 277 273 271 269 271 277 283 296 322 343 322 340 329 327 338 157 8 249 177 144 52 195 167 209 319 20 209 199 103 231 171 178 198 247 159 223 82 74 48 120 21
354 345 299 272 265 263 270 270 285 278 273 273 264 264 287 340 292 302 304 309 285 52 250 318 102 124 99 208 219 126 308 333 296 116 49 201 180 186 181 107 96 136 70 51 49 75 341
336 329 12 301 264 283 279 290 262 276 278 278 277 249 230 196 199 263 314 332 32 164 254 226 212 174 207 199 218 179 171 181 176 112 235 193 230 147 152 109 37 115 90 319 339 337 231
319 329 312 305 313 190 121 115 94 103 259 270 275 280 259 232 217 256 342 38 210 224 232 176 155 171 209 170 230 184 190 241 233 195 118 177 296 173 187 196 179 179 169 168 226 222 254
286 308 313 288 268 46 159 163 41 10 358 316 265 242 242 257 211 198 149 216 213 197 235 170 122 175 213 237 192 146 207 214 214 180 186 183 260 105 124 110 137 191 195 193 122 296 50
278 274 302 299 277 276 45 42 311 327 352 5 273 211 219 248 216 186 212 231 204 220 279 27 208 194 206 197 177 184 191 209 225 194 193 209 257 204 153 82 40 156 181 73 356 265 257
256 261 260 275 305 288 296 287 326 337 354 350 50 238 298 194 190 215 223 219 232 240 206 215 213 242 263 244 202 197 224 265 199 195 181 163 175 214 118 206 178 153 202 220 176 171 217
249 248 249 253 259 291 280 284 310 315 344 48 72 230 339 209 203 220 232 207 225 235 223 244 260 260 230 263 265 253 212 211 171 159 170 203 179 213 209 238 190 197 192 176 196 235 232
247 244 249 245 242 243 259 252 287 297 354 136 170 306 333 345 236 225 262 226 227 225 217 206 227 221 234 245 259 250 256 240 202 170 173 170 196 280 306 10 344 221 201 204 237 101 232
237 241 244 252 243 242 239 253 250 282 157 156 114 275 314 343 66 12 359 335 268 26 32 358 301 313 263 247 241 255 253 254 311 229 196 181 185 208 238 218 136 191 202 208 208 227 241
236 237 245 245 246 245 234 220 243 239 182 139 34 156 74 332 1 11 287 338 336 342 21 19 45 22 339 287 258 248 268 258 111 9 291 186 227 232 242 248 238 235 211 208 208 220 213
233 231 233 243 247 241 234 227 225 211 178 132 165 181 149 209 174 171 129 350 7 329 312 359 326 354 324 302 328 319 354 350 12 351 334 325 249 230 250 254 248 262 248 223 223 230 237
231 232 234 238 241 245 238 228 224 211 190 163 172 170 120 179 189 181 206 190 201 81 198 228 59 328 332 358 343 318 235 264 263 301 337 300 313 232 254 208 202 259 248 240 233 237 236
233 233 231 235 240 243 241 234 222 213 205 186 164 142 164 228 201 208 212 209 214 207 234 237 218 218 160 338 300 251 241 245 244 233 200 250 285 282 284 93 231 289 321 227 224 234 227
237 238 239 236 237 244 244 238 227 219 212 205 183 154 163 229 213 231 241 230 229 240 221 217 206 210 141 1 305 293 239 247 239 234 224 209 215 239 246 229 324 299 276 161 170 255 222
234 231 241 242 245 245 246 244 235 230 219 208 200 189 154 160 225 213 201 174 193 202 204 232 243 167 155 181 225 261 256 283 283 298 215 216 223 244 214 236 227 293 316 296 104 255 212
236 238 237 234 235 243 246 244 243 233 225 215 207 202 151 204 239 182 188 199 162 174 233 216 142 191 188 207 213 214 233 240 241 245 219 191 213 227 242 256 239 237 245 271 138 248 228
239 238 239 232 230 237 242 244 243 239 234 221 238 210 186 198 214 204 202 165 148 160 175 160 352 221 207 249 258 255 253 238 263 352 306 233 223 217 230 244 261 341 17 213 296 356 196
239 238 232 228 225 232 239 245 246 243 236 216 196 194 194 140 277 231 251 243 208 160 141 199 211 151 190 192 306 341 305 279 267 270 279 255 222 312 264 257 322 304 250 273 294 284 281
Height
845 843 842 843 843 843 843 843 842 841 840 838 837 835 833 831 828 825 822 819 816 813 810 809 808 806 806 806 809 807 805 803 802 801 800 799 798 802 809 807 807 811 812 811 813 812 813
844 844 843 843 842 842 843 842 843 841 839 838 836 834 832 830 826 823 820 817 815 812 810 808 807 806 806 812 808 807 805 804 803 802 801 800 801 800 803 807 812 810 810 810 812 812 811
841 843 843 842 842 841 841 842 842 841 840 838 836 834 831 828 825 821 818 816 812 810 809 808 806 805 805 810 807 807 806 805 805 804 802 802 801 801 802 809 807 810 817 815 814 812 813
839 841 841 842 841 840 840 840 841 840 839 837 835 833 830 828 824 821 817 813 810 808 808 807 806 805 807 807 807 806 806 806 806 806 805 803 802 801 803 806 810 816 816 825 814 812 812
836 838 840 840 841 839 838 838 838 838 838 837 835 833 830 828 824 820 815 811 807 806 807 807 807 807 808 807 807 806 806 807 806 806 806 804 804 805 807 816 829 819 831 819 816 813 814
833 834 836 838 838 839 839 837 837 837 836 837 835 833 830 827 824 819 813 808 806 806 807 807 807 811 809 809 807 806 806 806 806 807 808 807 810 815 818 825 846 829 824 818 821 818 817
831 831 833 833 836 836 836 837 835 834 835 835 834 833 830 827 822 819 813 808 812 812 809 812 812 810 808 808 807 807 807 807 806 809 818 810 822 827 818 814 816 819 823 827 821 819 818
827 827 829 830 832 833 834 834 835 833 833 834 833 831 829 826 823 820 818 821 828 829 823 808 809 810 809 809 809 807 807 809 808 814 809 821 824 814 816 815 817 821 827 831 820 819 821
823 824 825 826 828 828 829 831 833 831 831 831 831 830 828 826 822 821 822 826 826 826 827 810 808 808 810 811 809 809 808 807 808 811 813 824 821 815 815 821 822 823 829 826 827 827 822
821 821 821 822 825 825 825 826 828 831 830 829 828 828 827 826 825 823 823 824 824 824 836 822 810 809 810 809 811 808 808 810 809 810 810 816 817 819 821 822 823 828 825 827 829 845 849
822 820 820 821 821 823 822 823 824 825 827 827 827 825 826 826 828 826 826 823 823 824 865 811 809 809 809 812 811 809 809 809 811 810 814 817 821 822 825 823 818 829 825 830 835 848 857
822 822 820 820 820 820 819 818 820 824 825 825 824 823 823 825 827 828 826 824 824 842 853 818 810 810 811 811 808 809 810 810 810 811 811 812 813 814 815 818 822 828 832 836 850 865 874
822 822 822 820 819 819 816 817 816 819 822 823 823 822 821 824 825 825 826 826 845 845 808 809 811 810 810 810 809 811 813 815 819 830 827 817 818 815 814 822 824 825 839 858 862 864 842
822 821 821 821 819 817 815 816 816 816 818 820 822 822 820 820 822 825 824 834 843 822 810 795 798 804 811 804 804 808 810 816 810 809 826 833 831 818 814 813 821 831 831 843 848 846 833
819 820 820 820 819 817 815 815 815 816 815 817 819 820 821 816 820 823 827 830 831 817 802 800 802 806 806 801 800 805 812 810 801 801 816 823 819 807 809 809 813 827 836 820 828 828 856
816 818 819 819 818 817 816 815 814 814 815 815 815 817 816 816 818 819 820 809 808 799 795 796 808 802 805 799 804 809 807 791 790 787 785 795 809 809 812 810 815 817 818 834 840 839 836
812 814 816 817 817 816 816 815 815 813 814 814 814 814 812 812 815 813 801 802 797 795 796 801 802 805 800 795 796 801 793 784 780 779 784 790 798 819 815 814 810 823 821 822 822 825 822
806 809 811 812 814 814 815 814 814 813 813 813 815 811 809 810 807 797 790 791 790 791 791 793 794 796 797 795 792 791 788 778 774 778 787 785 795 810 805 794 794 798 791 796 811 808 820
801 803 806 808 810 811 812 813 813 812 812 812 814 814 808 809 803 789 787 783 784 785 785 789 786 784 787 786 792 779 773 768 772 777 783 786 797 813 799 804 798 794 792 787 789 797 786
796 798 801 804 805 807 809 811 812 811 811 813 815 815 814 812 815 816 809 800 789 795 791 796 788 787 786 778 776 763 763 768 770 764 770 771 783 786 764 765 774 792 785 777 778 784 776
792 793 796 799 800 803 806 808 810 810 812 815 816 815 818 815 816 819 820 817 809 805 804 804 800 807 806 790 774 764 765 763 773 783 780 771 778 774 758 751 762 761 761 765 764 753 766
787 788 792 794 795 797 800 804 807 808 811 813 816 815 818 818 819 818 817 813 810 812 814 807 809 813 813 807 808 803 803 800 794 792 787 785 765 765 762 750 756 763 757 755 750 747 745
782 785 787 789 790 793 795 799 803 805 809 811 813 814 815 813 816 815 812 811 809 814 813 813 815 812 810 809 811 806 806 804 802 801 795 794 785 777 754 764 769 767 746 748 746 744 744
776 780 783 783 786 789 791 794 797 800 804 807 810 813 814 809 811 809 807 808 809 811 811 812 812 812 809 807 806 803 801 798 796 794 795 792 787 782 774 774 766 739 743 736 734 735 740
771 775 777 780 782 785 787 790 792 796 800 803 805 810 813 809 805 805 805 805 806 806 806 810 809 807 808 808 808 799 793 789 783 780 783 785 785 777 775 767 753 741 742 740 741 740 737
767 770 773 775 779 781 783 785 788 791 795 798 800 804 808 809 804 795 799 801 807 810 808 805 803 804 807 807 805 802 791 783 779 777 774 776 780 776 770 763 755 745 742 737 735 742 733
762 766 768 771 773 776 778 781 784 787 789 793 793 797 803 805 799 797 800 798 796 802 806 801 804 805 805 802 801 799 791 779 779 774 778 773 774 767 766 756 754 748 740 737 760 743 730
757 760 763 766 769 772 774 776 779 781 785 789 789 791 794 795 794 794 794 796 796 799 803 803 807 804 804 801 797 793 785 780 777 776 776 775 771 765 759 754 750 749 745 745 736 729 727
753 756 758 761 765 768 770 772 773 776 779 783 787 787 787 794 793 790 791 790 791 792 798 801 798 800 800 806 807 804 799 795 788 786 772 771 767 767 763 754 753 749 749 744 743 738 731